Погода в Астраханке

Погода в Астраханке : погода сейчас, прогноз погоды и архив. Всё, что Вы хотите узнать о погоде в Астраханке!

Хотите узнать прогноз погоды в Астраханке? Тогда Вам сюда: Погода в Астраханке

Поиск расширенной информации на нашем сайте:

Другие новости

Новости СМИ2

Главная страница сайта

Новости сайта

03.07.2017

Напоминаем, что на нашем специализированном сайте Метеоцентр.Азия вы можете получить высокодетализированные автоматические прогнозы погоды по пунктам России, СНГ и мира в авиационном формате (включающие направление и скорость ветра, видимость, явления погоды, количество и форму облачности, нижнюю и верхнюю границу облачности).


Погода в Астраханке - сегодня

Время (UTC), дата Ветер
(°,м/с) 
Видим.   Явления Облачность Т
(°С)
Тd
(°С)
f(%) Тe
(°С)
Pmin
(гПа)
dP
(гПа)
Po
(мм)
O2
(г/м3)
Тmin Tmax R s Состояние
почвы
15 17.10.17 250 (З) 20000 м    ясно 
+0.4 -8.7 50 -1  1031.2  0.4  766  309           
18 17.10.17 260 (З) 20000 м    ясно 
-0.4 -8.5 54 1031.5  0.2  766  310           
21 17.10.17 270 (З) 20000 м    ясно 
-4.6 -8.5 74 -6  1030.9  -0.8  766  315  -4.6        замёрзшая 
00 18.10.17 150 (ЮВ) 10 км    ясно 
+3 -7.4 46 +4  1031.6  0.9  766  306           
03 18.10.17 170 (Ю) 20000 м    1/0 верхняя 
[Ci fib]
+7.8 -7 34 +7  1029.1  -2.2  765  300           
06 18.10.17 200 (Ю) 20000 м    6/0 верхняя 
[Ci fib]
+9.9 -10 23 +9  1026.1  -2.9  762  297           
09 18.10.17 190 (Ю) 20000 м    9/0 верхняя 
[Ci fib]
+5.7 -8.8 34 +5  1025.1  -1.2  762  301    +10       
12 18.10.17 210 (ЮЗ) 20000 м    6/0 верхняя 
[Ci fib]
+1.9 -5 60 +1  1024.5  -0.7  761  305           
15 18.10.17 180 (Ю) 20000 м    3/0 верхняя 
[Ci fib]
-1.1 -3.8 82 -2  1023.3  -1.2  760  308           
18 18.10.17 200 (Ю) н/о    н/о 
+0.4 -1.6 86 -1  1021.8  -1.4  759  306           
21 18.10.17 210 (ЮЗ) 20000 м    8/6 600 м средняя 
[Sc|Ac lent]
+2.3 -0.2 84 1020.7  -1  758  303  -1.2        замёрзшая 
00 19.10.17 210 (ЮЗ) 20000 м    6/3 600 м средняя, верхняя 
[Sc|Ac trans|Ci fib]
+7.5 +3.7 77 +6  1020.6  758  297           
03 19.10.17 190 (Ю) 6-10{10}  20000 м    3/3 600 м 
[Cu hum]
+13.4 +6.2 62 +12  1019  -1.3  757  290           
06 19.10.17 200 (Ю) 6-10{12}  20000 м    8/0 верхняя 
[Ci sp]
+13.3 +6.9 65 +12  1017.8  -1.3  756  289           
09 19.10.17 200 (Ю) 5{11}  20000 м    10/8 600 м кучево-дожд., средняя 
[Cb cap|Ac trans]
+10.7 +7.8 82 +10  1018.6  0.7  757  292    +14.2       
12 19.10.17 220 (ЮЗ) 20000 м  {ливн. осадки}  3/3 600 м кучево-дожд. 
[Cb cap]
+8.5 +7.6 94 +7  1019.1  0.5  757  295           
15 19.10.17 210 (ЮЗ) 20000 м    10/0 средняя 
[As trans]
+8.9 +8.1 95 +8  1019.6  0.5  758  294           
18 19.10.17 230 (ЮЗ) 20000 м    10/0 средняя 
[As trans]
+8.9 +8.1 95 +9  1019.7  0.2  758  294           
21 19.10.17 340 (С) 0500 м  туман  10/0 средняя 
[As trans]
+6.9 +6.2 95 +7  1020  0.2  758  297  +6.9    0.1    влажная 
00 20.10.17 020 (С) 2000 м  дымка{туман}  10/10 300 м 
[St]
+7.2 +6.7 97 +7  1020.4  0.5  758  297  +6.7         
03 20.10.17 010 (С) 1000 м  дымка  10/10 300 м 
[St]
+8.2 +7.5 95 +8  1019.2  -1.2  757  295           
06 20.10.17 170 (Ю) 5-11{11}  4000 м  гроза, ливневой дождь{туман}  9/9 600 м кучево-дожд. 
[Cb cap]
+11 +8.2 83 +10  1016.7  -2.3  755  291           
09 20.10.17 190 (Ю) 2{12}  10 км  {гроза, ливн. осадки}  10/10 300 м кучево-дожд. 
[Cb cap]
+11 +9.2 89 +11  1017.2  0.5  756  291    +12.1     
12 20.10.17 200 (Ю) 10 км  {гроза, ливн. осадки}  10/10 300 м 
[St]
+10.2 +8.7 90 +9  1017.2  756  292           
15 20.10.17 190 (Ю) 5{11}  10 км    10/10 300 м кучево-дожд. 
[Cb cap]
+10.6 +9 90 +9  1015.9  -1.3  755  291           
Время (UTC), дата Ветер
(°,м/с) 
Видим.   Явления Облачность Т
(°С)
Тd
(°С)
f(%) Тe
(°С)
Pmin
(гПа)
dP
(гПа)
Po
(мм)
O2
(г/м3)
Тmin Tmax R s Состояние
почвы

Для получения пояснительной информации подведите курсор к названию столбца.

ПОГОДА в Астраханке - архив

Всё, что Вы хотите узнать о погоде в Астраханке - удобно и подробно!

Выберите нужную дату (начиная с 1 января 2015* года) и нажмите кнопку "Найти".
Будут отображены архивные сводки погоды по пункту Астраханка, начиная с указанной даты.


Отображать данные в формате CSV (для использования в таблицах Excel)


Внимание! Наш архив погоды предназначен исключительно для личного некоммерческого использования в познавательных целях. Если Вам необходимы официальные справки о состоянии погоды (для производственных, юридических, коммерческих и т.п. целей), обращайтесь в органы Росгидромета.

*Примечание: данная дата относится к архиву по метеостанциям СССР (Россия, СНГ, Балтия).
Архив по метеостанциям Зарубежной Европы и Азии (кроме Китая) хранится 10 дней, по другим регионам земного шара (Китай, Африка, Америка, Австралия, Океания) - 1 день.

Астраханка - район местоположения метеостанции


Название, широта, долгота, высота метеостанции:
Астраханка 44.7°ш. 132.1°д. 78 м над ур. моря [Российская Федерация]

Дополнительная информация

В oтличие oт бoльшинства пoгoдных сайтoв мы публикуем пoдрoбную метеoинфoрмацию в детальнoм прoфессиoнальнoм фoрмате.

Характеристики температуры и влажнoсти вoздуха измеряются на высoте 2 м в тени вдали oт зданий и деревьев.
Скoрoсть ветра измеряется на высoте 10 м (на урoвне рoста челoвека скoрoсть ветра ниже в 1.5-2 раза). Если метеoстанция нахoдится в гoрoде или в лесу, тo скoрoсть ветра занижена на 2-4 м/с пo сравнению с oткрытым местoм. Скoрoсть ветра над акватoриями крупных рек и oзёр, а также на вершинах хoлмoв на 2-5 м/с выше, чем в oбычных услoвиях.
Атмoсфернoе давление в разных тoчках местнoсти мoжет значительнo oтличаться oт давления на метеoстанции, в зависимoсти oт услoвий рельефа (при пoдъёме на 10 м давление пoнижается примернo на 1 мм рт.ст.).